Flag for Australia Weather past 2 weeks in The Settlement, Christmas Island, Australia

Now
81 °F

Scattered clouds.


Feels Like: 86 °F
Forecast: 75 / 84 °F
Wind: 7 mph from West

Location: Christmas Island Aerodrome

Current Time: Jan 25, 2015 at 6:13:57 PM

Latest Report: Jan 25, 2015 at 5:00 PM


Visibility: N/A

Pressure: 29.86 "Hg

Humidity: 84%

Dew point: 75 °F

Location of The SettlementLocation

Historic Weather in The Settlement — Graph

°F

The Settlement temperature yesterday

Maximum temperature yesterday: 82 °F (at 9:00 AM)
Minimum temperature yesterday: 75 °F (at 1:00 AM)
Average temperature yesterday: 78 °F

Past Weeks' High & Low Weather Summary

 TemperatureHumidityPressure
High84 °F (Jan 22, 11:00 AM)100% (Jan 11, 8:00 PM)30.01 "Hg (Jan 11, 8:00 PM)
Low72 °F (Jan 14, 5:00 AM)62% (Jan 22, 11:00 AM)29.77 "Hg (Jan 10, 4:00 PM)
Average77 °F88%29.90 "Hg
* Reported Jan 10 4:00 PM — Jan 25 4:00 PM, The Settlement, Weather by CustomWeather, © 2014

Note: Actual official high and low records may vary slightly from our data, if they occured in-between our weather recording intervals... More about our weather records

Advertising

The Settlement weather history for previous 24 hours

 ConditionsComfort  
Time TempWeatherWind HumidityBarometerVisibility
4:00 PM
Jan 25
82 °FScattered clouds.8 mph79%29.86 "HgN/A
3:00 PM81 °FScattered clouds.9 mph84%29.89 "HgN/A
2:00 PM79 °FBroken clouds.7 mph94%29.89 "HgN/A
1:00 PM77 °FRain. Low clouds.8 mph100%29.92 "HgN/A
12:00 PM81 °FBroken clouds.8 mph84%29.95 "HgN/A
11:00 AM79 °FSprinkles. Broken clouds.8 mph89%29.98 "HgN/A
10:00 AM81 °FBroken clouds.6 mph84%29.98 "HgN/A
9:00 AM81 °FScattered clouds.7 mph84%29.98 "HgN/A
8:00 AM79 °FSunny.6 mph89%29.98 "HgN/A
7:00 AM77 °FSunny.5 mph94%29.95 "HgN/A
6:00 AM77 °FScattered clouds.6 mph89%29.95 "HgN/A
5:00 AM77 °FPassing clouds.6 mph89%29.92 "HgN/A
4:00 AM77 °FPassing clouds.7 mph89%29.92 "HgN/A
3:00 AM77 °FClear.6 mph89%29.92 "HgN/A
2:00 AM77 °FPassing clouds.6 mph89%29.92 "HgN/A
1:00 AM77 °FPassing clouds.6 mph89%29.95 "HgN/A
12:00 AM77 °FClear.6 mph89%29.95 "HgN/A
11:00 PM
Jan 24
77 °FClear.6 mph89%29.98 "HgN/A
10:00 PM77 °FClear.6 mph89%29.98 "HgN/A
9:00 PM77 °FPassing clouds.5 mph89%29.95 "HgN/A
8:00 PM77 °FClear.6 mph89%29.95 "HgN/A
7:00 PM77 °FClear.6 mph89%29.92 "HgN/A
6:00 PM79 °FSunny.5 mph84%29.89 "HgN/A
Weather by CustomWeather, © 2014

See weather overviewHow to use our weather pages